Theta_e
318 311 305 299 290 289 285 290 294 295 298 304 312 310 308 310 308 301 329 333 333 337 342 344 346 347 345 345 345 345 345 342 342 343 342 342 343 345 345 345 345 346 342 341 339 338 337 335 334
313 310 302 292 285 280 280 288 292 294 298 301 308 311 311 307 321 324 325 333 335 338 341 342 343 346 346 345 345 346 345 343 344 344 344 344 343 344 345 345 346 344 341 339 339 337 334 333 333
306 305 297 288 282 280 282 291 293 296 297 308 308 315 313 314 323 319 322 334 335 336 338 341 343 346 346 345 345 345 344 343 343 344 343 343 344 345 345 345 344 344 340 339 338 337 334 333 332
304 298 293 286 284 287 289 293 294 296 303 310 308 309 318 314 313 317 321 326 332 336 337 338 342 345 345 345 345 344 343 341 341 341 341 342 343 344 345 343 343 343 340 339 338 336 335 333 332
298 292 285 282 283 290 293 293 294 298 301 305 307 306 315 314 314 317 323 328 331 332 336 337 340 343 344 345 344 344 344 341 341 340 339 340 342 344 344 344 343 342 341 340 337 336 333 333 333
294 290 283 280 285 291 292 293 294 296 300 303 305 306 313 314 310 314 324 329 333 336 337 336 333 338 340 342 343 343 342 342 341 340 338 339 342 344 343 342 342 342 341 339 336 334 333 333 332
292 286 281 280 285 289 292 293 293 295 296 299 304 303 305 308 309 313 321 324 325 323 323 333 333 333 331 336 338 338 339 340 339 339 339 339 341 343 342 340 342 340 338 338 335 334 333 333 331
292 289 284 283 285 287 292 293 293 297 296 304 303 298 299 302 307 313 318 319 322 323 323 321 323 324 332 332 330 333 335 336 337 336 334 333 335 337 337 335 338 341 338 337 336 334 333 334 331
294 286 283 284 286 289 292 292 294 299 297 300 300 299 301 304 308 309 311 313 315 319 321 321 320 320 319 331 330 328 331 332 332 331 328 327 330 333 334 332 334 337 335 336 335 333 331 331 329
289 285 285 287 287 287 290 293 293 293 294 294 295 298 300 303 306 306 307 307 309 313 319 320 320 320 319 331 330 330 331 331 331 329 329 329 328 329 332 328 329 332 332 334 334 331 326 321 318
286 283 286 288 289 289 291 291 294 291 290 292 291 294 297 301 302 303 305 305 305 310 314 318 320 321 319 328 329 329 329 326 327 328 328 327 326 325 328 330 331 330 326 329 328 323 318 315 315
286 288 288 291 292 292 290 293 290 292 289 295 295 296 295 297 298 300 301 303 304 305 308 314 318 320 321 323 328 327 325 326 324 325 328 326 323 323 326 330 329 329 328 326 323 320 317 315 315
287 287 290 291 292 291 293 290 290 289 292 295 296 294 292 295 297 299 300 303 302 302 305 307 312 318 320 321 326 326 324 324 326 325 327 325 322 321 327 328 328 327 327 324 321 319 318 316 315
288 289 288 290 289 291 289 287 288 288 291 290 291 291 292 293 295 297 299 298 300 301 302 305 307 309 319 320 322 324 324 322 324 324 325 327 324 322 323 327 326 323 324 322 320 318 317 316 317
289 286 288 288 289 288 290 285 284 287 289 288 288 288 290 291 293 295 297 298 298 299 302 303 304 306 309 317 321 321 322 325 323 324 325 326 325 324 324 325 326 323 323 322 320 318 316 316 320
285 284 280 286 288 289 287 280 286 287 285 286 286 286 288 289 290 292 295 296 296 297 299 301 303 303 305 308 317 320 321 324 323 322 324 326 325 323 321 325 325 326 322 320 319 317 315 315 317
282 278 280 282 287 287 285 281 286 287 286 285 285 285 286 287 289 290 291 293 294 295 297 297 300 300 302 305 310 320 320 322 325 322 322 324 325 324 323 321 322 323 322 320 320 316 315 314 314
279 278 280 278 284 286 283 282 285 286 285 283 284 284 285 286 288 289 290 291 292 293 295 296 297 298 299 302 306 314 318 318 321 325 322 323 324 323 322 320 319 321 320 318 318 316 315 314 313
283 279 277 281 285 284 282 282 284 285 284 284 285 285 285 286 288 289 289 289 290 291 292 293 294 296 297 298 300 304 308 310 316 318 320 323 322 323 321 320 318 319 319 318 317 314 313 311 311
283 280 278 282 285 284 283 282 284 284 284 285 285 285 285 286 287 288 288 288 288 289 290 292 292 294 295 296 298 301 303 306 310 314 314 314 322 321 320 319 317 317 318 317 315 314 310 310 311
282 280 279 280 283 283 281 278 281 284 285 285 286 286 286 285 286 286 286 287 287 288 289 290 291 292 294 294 297 299 304 308 308 306 308 310 316 321 320 320 318 317 318 316 315 313 312 310 309
281 284 283 283 279 276 280 272 278 281 283 284 285 285 285 285 286 286 286 287 287 288 289 290 291 291 293 293 294 294 296 297 300 302 305 309 312 315 322 320 319 319 318 316 315 314 312 311 308
282 284 283 282 280 277 278 271 277 281 282 283 284 285 285 285 285 285 286 287 288 287 287 288 290 290 291 291 292 292 293 296 299 302 303 307 309 313 316 322 319 318 318 318 317 315 314 313 311
286 284 280 279 278 267 278 274 275 278 282 283 284 284 285 283 284 284 285 286 286 286 287 287 289 289 290 290 290 290 291 292 295 297 299 301 305 309 312 313 321 321 320 318 318 317 316 315 314
281 276 264 265 263 267 276 274 277 280 283 284 284 284 285 283 283 283 283 283 284 284 286 287 289 289 289 289 290 290 291 292 293 295 296 298 300 303 306 309 312 318 321 321 320 318 317 316 315
281 277 268 262 264 267 276 273 279 283 286 286 286 285 285 283 283 283 283 283 282 284 285 286 288 289 290 290 290 291 292 292 292 294 295 297 299 302 305 309 310 312 318 321 321 320 319 319 318
279 273 280 271 269 268 272 276 280 284 284 285 285 285 285 283 283 283 282 282 282 283 284 285 288 289 289 290 291 291 291 291 291 293 295 297 300 303 304 307 309 310 312 319 319 319 318 318 318
281 283 271 269 262 262 267 270 275 281 283 284 284 284 284 284 283 283 282 282 282 282 283 285 286 287 289 290 290 291 291 292 293 294 294 296 298 300 302 306 309 312 311 316 319 318 318 317 315
279 275 279 277 273 264 260 270 277 281 283 283 283 284 284 284 283 283 282 282 281 281 282 283 284 285 287 289 290 290 290 291 293 293 294 295 296 297 299 302 305 307 310 313 312 310 310 308 306
280 279 278 269 265 268 269 270 281 282 283 283 284 285 285 284 284 283 282 281 280 279 281 281 282 283 285 287 289 289 290 290 291 291 292 294 295 296 298 299 301 302 304 305 306 303 303 302 300
Wind_Speed
7 4 2 6 6 6 2 3 4 9 8 5 7 4 4 4 4 3 8 5 2 8 5 11 17 17 15 14 15 15 16 15 13 12 12 12 13 14 15 16 16 17 19 18 19 18 18 18 18
3 2 5 3 6 3 4 4 7 5 6 11 4 4 7 3 2 2 5 6 4 3 4 7 13 18 18 16 13 14 15 15 14 13 12 11 12 14 16 18 16 17 19 19 20 20 18 18 18
1 4 5 6 4 3 2 4 8 8 7 8 4 6 4 7 8 9 18 3 5 3 1 4 12 14 17 18 14 13 13 14 13 13 11 10 10 14 15 17 17 19 19 20 20 19 18 17 17
3 6 6 6 3 1 2 7 5 10 7 12 6 6 7 14 8 13 17 15 3 5 2 5 12 14 14 15 15 13 13 14 14 12 10 8 7 12 14 17 18 20 19 20 21 19 18 16 15
5 4 5 4 1 2 2 4 6 6 5 8 12 7 3 6 17 19 19 12 2 1 4 6 11 13 13 12 13 14 14 13 13 12 10 7 5 10 15 18 18 19 19 19 20 18 15 14 15
5 4 5 2 2 3 2 6 5 5 5 6 8 8 4 7 23 21 18 12 8 0 7 3 6 8 11 13 12 12 13 13 11 11 10 8 6 12 17 18 17 19 18 18 19 17 16 16 17
7 5 3 2 3 4 6 10 5 4 6 7 9 4 7 13 21 17 12 10 9 11 15 13 6 4 7 10 11 11 11 11 10 10 10 8 5 11 16 17 19 19 17 17 17 15 14 17 17
6 6 4 4 2 0 6 7 1 7 4 4 7 7 8 14 20 15 11 13 10 9 8 13 12 15 12 6 10 11 11 11 9 8 6 7 5 9 12 10 15 19 18 17 16 13 12 15 16
3 6 2 1 3 5 4 4 5 1 4 4 4 4 9 16 13 14 14 14 11 8 6 10 8 13 15 9 7 8 10 11 10 8 6 3 3 6 9 9 10 16 17 16 16 13 12 12 13
7 5 2 1 2 4 3 5 5 3 6 5 3 7 10 12 12 13 13 13 14 13 8 9 6 11 17 12 6 6 5 4 5 5 6 4 2 3 6 8 11 14 13 14 14 15 13 7 3
3 4 2 3 3 2 3 3 3 4 5 2 7 11 10 10 12 12 13 12 11 11 8 7 6 9 17 12 6 3 3 3 3 6 5 5 4 2 3 5 4 6 8 5 7 7 4 6 4
7 4 2 4 6 2 2 2 3 6 1 3 5 6 6 9 11 12 12 12 14 13 12 12 10 5 9 13 6 6 4 3 2 3 5 5 3 4 3 4 4 5 3 5 5 4 5 6 5
6 1 4 4 6 4 5 4 3 3 2 5 5 6 7 8 9 7 8 9 10 13 14 14 13 10 12 18 3 4 4 4 5 4 4 4 5 4 5 4 4 4 3 3 4 4 4 4 5
3 4 3 5 4 3 3 2 2 1 2 6 6 6 7 6 9 9 10 11 12 11 13 14 13 14 7 9 13 2 3 3 4 4 4 5 5 6 6 7 5 4 4 4 4 5 4 4 4
3 4 5 8 7 2 5 3 3 2 2 5 7 7 7 7 7 9 9 9 9 9 10 12 13 12 13 7 3 5 3 2 3 4 6 6 6 6 6 7 7 4 3 5 4 3 3 3 3
6 5 4 3 9 2 2 5 2 2 3 6 8 8 7 7 6 7 8 8 8 10 10 10 10 11 13 10 8 2 4 2 3 4 4 8 9 7 5 6 6 8 4 4 3 3 2 2 2
8 2 4 8 3 5 4 3 2 1 2 5 7 7 7 7 7 7 8 8 8 9 9 10 10 11 11 11 8 3 4 2 2 3 4 4 7 8 6 4 4 6 5 3 4 2 2 2 1
1 3 5 5 6 7 4 4 3 1 1 5 6 7 7 7 6 7 7 9 7 7 9 9 8 11 11 8 7 5 2 3 4 1 3 6 6 7 7 4 5 5 5 4 3 3 2 2 2
5 3 3 5 3 6 4 6 8 3 3 5 6 6 6 7 7 7 6 7 7 8 11 10 10 10 8 6 5 4 4 5 3 6 8 5 4 7 9 5 5 5 6 6 6 3 4 2 3
4 3 3 7 5 3 5 10 7 4 4 4 4 7 6 6 7 8 7 7 8 7 9 10 9 9 7 5 3 3 4 4 2 4 6 10 5 5 4 6 6 6 5 6 6 5 3 2 3
3 4 3 4 8 3 7 6 4 3 3 3 5 5 5 6 7 8 9 6 7 8 9 9 10 8 6 8 5 4 2 4 2 5 5 6 5 3 4 5 4 6 5 5 6 5 6 4 3
3 3 3 4 6 4 5 5 5 4 7 5 7 6 7 7 5 4 7 7 7 7 7 7 8 9 8 8 6 7 4 4 3 4 3 6 9 5 2 5 5 5 4 6 6 5 4 4 4
3 1 2 2 3 4 2 3 8 4 6 5 6 7 7 6 6 6 6 7 6 7 7 7 6 7 8 8 7 5 4 3 4 4 6 5 4 5 7 5 6 5 5 6 8 6 6 5 4
3 3 5 4 2 4 3 4 7 3 5 5 4 5 6 5 5 5 5 5 6 6 6 6 6 6 7 6 7 6 5 6 5 5 4 4 3 4 6 8 5 8 6 5 5 5 6 5 4
3 5 6 8 7 6 2 3 10 5 5 5 5 6 6 5 3 5 5 6 6 6 6 7 8 8 7 6 6 6 6 5 5 5 5 6 5 4 5 7 6 2 5 6 6 7 6 6 5
4 4 8 4 3 7 2 5 6 4 6 6 6 6 5 5 4 4 5 6 6 7 6 6 6 7 8 7 7 5 5 4 4 4 4 4 4 4 5 4 4 3 4 4 4 3 4 6 6
3 6 3 7 3 3 4 8 8 4 8 7 8 6 8 6 5 5 4 4 5 7 7 5 6 7 7 8 7 6 5 5 5 6 5 3 3 4 6 6 4 4 4 3 5 4 5 6 6
1 7 5 4 4 7 6 7 6 5 7 6 7 7 7 6 6 4 3 3 3 4 6 6 6 5 6 7 7 6 7 6 5 4 5 4 4 5 6 6 6 4 4 5 5 3 3 4 1
1 2 5 5 4 5 3 9 8 6 5 7 8 8 7 7 7 5 3 3 3 3 2 5 5 6 6 6 5 6 6 7 7 6 6 6 5 5 5 6 5 4 2 1 4 5 4 5 4
1 3 3 7 5 2 4 12 2 7 7 7 9 9 7 5 6 5 3 3 3 3 4 5 6 5 5 6 6 6 6 7 6 6 6 6 6 5 5 5 4 4 4 5 5 6 5 6 5
Wind_Direction
327 324 88 44 61 64 282 291 324 339 348 337 312 62 106 60 8 296 347 6 61 140 149 159 157 149 148 145 146 147 142 139 139 136 140 149 145 143 137 137 137 126 128 125 121 118 113 111 110
334 319 44 86 88 76 277 306 330 274 293 301 247 328 48 36 21 17 359 358 1 113 141 162 161 152 149 150 157 149 142 140 142 137 132 143 157 151 151 146 138 129 131 129 123 120 117 118 115
181 25 79 91 97 137 241 350 286 297 298 351 18 58 43 1 4 3 340 318 91 10 163 167 164 158 154 152 157 149 146 146 144 135 132 132 156 164 157 154 147 136 138 133 129 122 118 119 118
34 12 37 76 114 122 80 316 300 324 340 19 345 59 90 73 359 322 322 336 130 144 222 190 176 161 162 157 156 156 156 152 150 145 138 136 153 178 162 158 149 139 141 139 133 131 130 127 123
33 53 57 79 61 105 43 326 315 356 15 355 338 347 67 34 355 348 342 327 251 179 200 197 185 166 165 165 165 166 163 159 156 151 144 136 137 160 157 153 151 143 144 142 137 131 133 147 138
47 93 59 157 197 7 313 356 334 17 355 353 28 343 44 30 5 346 348 23 335 315 309 244 201 176 176 172 174 172 168 157 163 158 150 141 144 152 155 154 150 140 143 141 138 135 133 133 136
102 76 129 67 329 18 333 333 43 356 0 11 324 343 296 3 348 339 333 358 24 43 21 346 324 223 217 181 174 178 166 155 163 159 152 148 149 158 160 158 146 138 141 140 139 138 141 145 140
98 88 65 16 333 21 326 357 336 35 36 325 340 10 334 333 332 339 0 13 6 15 52 22 17 9 315 217 186 168 158 155 150 148 154 143 140 148 155 148 157 146 142 142 138 140 140 147 143
80 63 80 13 24 281 334 20 4 5 66 33 52 23 320 321 339 3 11 13 16 7 33 86 9 1 348 259 201 169 158 151 140 140 135 118 134 137 136 132 147 140 136 140 139 137 130 144 147
65 79 135 212 255 277 311 61 312 29 11 3 342 354 334 336 1 11 15 8 7 357 358 22 62 1 344 266 184 153 154 150 142 146 143 131 101 122 130 134 148 129 132 145 142 133 122 97 96
45 98 180 335 281 256 335 50 32 346 31 20 307 325 343 354 5 10 6 7 355 349 352 15 6 20 2 286 171 140 125 138 138 153 147 141 122 107 121 122 129 126 132 143 128 122 111 122 131
90 52 70 350 352 37 31 98 45 48 324 308 314 329 331 2 10 2 359 357 352 353 355 354 344 345 351 315 164 147 137 135 131 153 147 135 123 121 125 131 129 129 128 136 131 135 145 143 149
78 99 50 2 56 73 65 56 81 38 342 342 342 356 4 3 3 3 5 2 356 358 353 349 331 353 40 326 31 146 146 155 156 154 161 140 139 141 143 140 144 131 144 149 142 146 152 148 166
98 91 58 27 12 39 94 23 115 54 13 0 2 1 1 2 348 355 8 9 1 357 354 347 349 348 32 29 0 284 116 156 147 156 161 167 154 155 154 157 160 144 155 152 155 165 168 163 173
84 64 11 12 340 29 157 13 339 304 43 358 336 348 356 355 356 3 2 1 356 352 351 356 351 357 332 48 43 309 58 152 163 175 169 162 161 163 165 161 171 160 164 144 141 150 135 168 183
47 54 11 355 3 4 153 282 295 16 26 340 333 339 341 340 342 343 357 10 360 355 8 351 355 348 347 5 324 311 44 331 195 177 186 183 171 163 162 166 175 175 153 149 147 149 153 201 196
22 22 337 324 64 342 16 282 252 49 29 321 318 326 330 334 344 343 347 355 359 357 358 360 352 4 352 339 324 316 37 341 317 184 174 203 188 166 166 159 167 157 158 155 157 131 152 177 233
10 17 321 285 316 349 310 283 259 200 259 294 307 321 328 333 321 328 349 347 351 356 356 11 353 6 350 339 3 344 19 335 16 356 202 181 203 177 161 156 155 162 157 152 144 152 109 171 182
131 96 304 278 308 349 286 288 279 239 252 288 302 315 323 321 308 323 346 349 349 3 355 12 359 1 357 2 357 351 7 328 6 8 343 205 184 207 166 164 159 163 177 181 161 128 164 164 168
70 64 315 282 276 306 321 292 273 216 237 227 264 297 308 316 325 324 341 353 352 354 354 357 359 1 354 2 337 324 318 298 321 9 360 5 142 153 166 159 168 170 159 156 156 152 139 162 161
66 78 310 255 320 250 330 310 311 282 249 236 250 259 290 288 306 318 328 344 344 356 351 351 345 352 354 357 339 330 300 271 5 25 351 338 344 96 170 159 166 173 164 176 177 172 160 162 178
109 141 272 304 18 309 35 286 295 297 282 252 258 256 273 289 302 310 321 331 344 341 338 339 336 342 359 350 354 7 11 343 4 318 334 334 345 36 235 173 172 182 174 183 184 176 170 149 171
194 83 92 349 350 12 354 64 271 341 310 302 285 249 257 268 275 305 319 322 329 343 335 325 341 346 346 351 346 2 5 338 320 323 356 10 321 23 350 202 172 192 189 199 185 178 192 193 160
306 118 64 57 15 22 327 96 286 268 243 293 295 272 261 270 267 299 312 325 322 333 326 324 349 340 343 345 340 355 349 337 341 346 2 4 350 19 12 352 225 186 192 203 194 183 192 191 200
42 50 355 358 10 221 1 13 249 277 262 244 277 284 277 256 252 290 309 312 316 321 337 345 357 340 339 342 335 345 337 335 327 343 358 352 351 7 357 342 347 339 184 198 183 182 194 192 200
4 114 139 229 311 287 328 238 258 233 289 266 272 265 274 242 255 272 295 308 323 323 343 345 340 337 341 341 334 342 333 325 337 346 338 328 328 325 311 313 287 311 301 196 182 178 189 186 204
282 49 141 100 32 348 279 291 299 282 286 284 280 290 280 261 243 250 259 288 316 326 332 329 333 344 347 332 336 342 356 342 335 331 306 300 296 322 325 317 309 293 289 274 200 201 220 206 211
119 164 71 7 45 316 303 292 252 290 275 283 288 287 293 288 278 244 213 264 294 314 315 327 336 337 332 343 345 345 346 338 326 322 324 332 329 336 328 323 329 317 263 249 216 202 224 212 141
360 37 58 104 114 153 304 274 218 239 273 272 276 279 280 281 279 276 234 234 258 282 299 320 353 340 342 341 345 351 349 346 347 352 344 342 337 339 342 329 321 332 352 107 113 86 77 90 78
279 225 145 120 253 128 137 274 289 257 284 293 282 284 285 274 270 267 269 284 294 321 346 350 347 336 340 335 347 357 4 360 356 358 344 344 358 347 349 346 4 14 36 42 76 90 67 80 72